Temperature
2 2 2 2 3 3 3 3 3 3 3 3 4 4 4 4 4 5 5 5 5 5 5 5 5 5 5 5 5 5 5 5 5 5 5 5 5 5
1 1 2 2 2 2 2 3 3 3 2 3 3 3 3 4 4 4 4 4 4 4 4 4 4 4 4 5 5 5 5 5 5 5 5 5 5 5
1 1 1 1 2 2 2 2 2 2 2 2 3 3 3 3 3 3 4 4 4 4 4 4 4 4 4 4 4 4 4 4 4 4 4 4 4 4
0 1 1 1 1 1 2 2 2 2 2 2 2 2 2 3 3 3 3 3 3 3 3 3 3 3 3 3 3 4 4 4 3 3 3 3 3 4
-0 0 0 1 1 1 1 1 1 1 1 1 1 1 2 2 2 2 2 2 2 3 3 3 3 3 3 3 3 3 3 3 3 3 3 3 3 3
-1 -0 -0 0 0 1 1 1 1 1 1 1 1 1 1 1 1 1 1 2 2 2 2 2 2 2 2 2 2 2 3 2 2 2 2 2 2 2
-1 -1 -1 -0 -0 0 0 0 0 0 -0 -0 0 -0 0 0 0 1 1 1 1 1 1 1 2 2 2 2 2 2 2 2 2 1 1 1 1 1
-2 -2 -1 -1 -1 -1 -0 -0 -0 -0 -1 -0 -1 -1 -0 -0 -0 0 -0 -0 -0 0 0 1 1 1 1 1 1 1 1 1 1 1 1 1 1 1
-3 -2 -2 -2 -2 -2 -1 -1 -1 -1 -1 -1 -1 -1 -1 -1 -1 -1 -0 -0 -0 -0 -0 -0 0 0 0 0 1 1 1 1 0 0 0 0 0 0
-3 -3 -2 -2 -2 -2 -2 -2 -2 -1 -1 -1 -1 -1 -1 -1 -1 -1 -1 -1 -1 -1 -1 -1 -1 -1 -1 -0 0 0 0 0 -0 -0 -0 -0 -1 -1
-4 -3 -3 -3 -3 -3 -3 -3 -3 -2 -2 -2 -2 -2 -2 -2 -2 -2 -2 -2 -2 -2 -1 -2 -1 -1 -1 -1 -1 -0 -1 -1 -1 -1 -1 -1 -1 -1
-4 -4 -3 -3 -3 -3 -3 -3 -3 -3 -3 -3 -3 -2 -2 -2 -2 -2 -2 -2 -2 -2 -2 -2 -2 -2 -2 -2 -2 -1 -1 -1 -1 -1 -1 -1 -2 -2
-4 -4 -4 -4 -4 -4 -4 -4 -3 -3 -4 -3 -3 -3 -3 -3 -3 -3 -3 -3 -3 -3 -2 -3 -3 -3 -3 -3 -2 -2 -2 -2 -2 -2 -2 -2 -2 -2
-5 -5 -4 -4 -4 -4 -4 -4 -4 -4 -4 -4 -4 -4 -4 -4 -3 -3 -3 -3 -3 -3 -3 -3 -3 -3 -3 -3 -3 -3 -3 -3 -3 -3 -3 -3 -3 -3
-5 -5 -5 -5 -5 -5 -5 -5 -5 -5 -5 -5 -5 -5 -4 -4 -4 -4 -4 -4 -4 -4 -4 -4 -4 -4 -4 -4 -4 -4 -4 -3 -3 -3 -3 -3 -3 -3
-6 -6 -6 -5 -5 -5 -5 -5 -5 -5 -5 -5 -5 -5 -5 -5 -5 -5 -5 -5 -5 -5 -5 -4 -4 -4 -4 -4 -4 -4 -4 -4 -4 -4 -4 -4 -4 -4
-6 -6 -6 -6 -6 -6 -6 -6 -6 -6 -6 -6 -6 -6 -6 -6 -6 -6 -6 -6 -6 -5 -5 -5 -5 -5 -5 -5 -5 -5 -5 -5 -5 -4 -4 -4 -4 -4
-7 -7 -7 -7 -7 -7 -7 -7 -7 -6 -6 -6 -6 -6 -6 -6 -6 -6 -6 -6 -6 -6 -6 -6 -6 -6 -6 -6 -5 -5 -5 -5 -5 -5 -5 -5 -5 -5
-8 -8 -8 -8 -8 -8 -8 -8 -7 -7 -7 -7 -7 -7 -7 -7 -7 -7 -7 -7 -7 -7 -7 -6 -6 -6 -6 -6 -6 -6 -6 -6 -6 -6 -6 -6 -6 -5
-9 -9 -9 -9 -9 -9 -9 -9 -8 -8 -8 -8 -8 -8 -8 -7 -7 -7 -7 -7 -7 -7 -7 -7 -7 -7 -7 -7 -7 -7 -7 -7 -7 -7 -6 -6 -6 -6
-9 -9 -9 -9 -9 -9 -9 -9 -9 -9 -9 -9 -8 -8 -8 -8 -8 -8 -8 -8 -8 -8 -8 -8 -8 -8 -8 -8 -8 -7 -7 -7 -7 -7 -7 -7 -7 -7
-10 -10 -10 -10 -10 -10 -10 -10 -10 -10 -9 -9 -9 -9 -9 -9 -9 -9 -9 -9 -9 -8 -8 -8 -8 -8 -8 -8 -8 -8 -8 -8 -7 -7 -7 -7 -7 -7
-11 -10 -10 -10 -10 -10 -10 -10 -10 -10 -10 -10 -10 -10 -10 -10 -10 -9 -9 -9 -9 -9 -9 -9 -9 -9 -9 -9 -9 -9 -8 -8 -8 -8 -8 -8 -8 -8
Wind_Speed
7 7 6 5 5 4 4 4 5 5 5 3 3 4 4 4 4 6 6 6 8 8 7 6 6 6 6 5 5 5 5 5 5 5 6 7 7 7
7 7 7 5 6 5 5 5 5 4 4 3 3 3 4 4 6 7 7 7 8 8 8 8 7 7 7 6 5 5 5 5 5 6 6 7 7 7
8 8 8 7 6 6 6 5 5 4 5 4 3 3 5 5 4 6 7 7 8 8 9 9 8 8 8 7 6 6 5 6 6 6 6 7 8 7
9 9 9 7 8 7 6 6 6 5 5 6 4 4 5 6 6 5 5 6 7 8 9 9 9 9 8 8 7 7 6 6 6 6 6 7 8 8
10 10 10 9 9 8 8 7 6 5 5 6 5 4 4 5 6 5 5 5 6 6 8 9 9 10 10 9 8 7 7 7 7 7 7 8 8 9
10 10 10 10 10 9 8 8 7 6 6 6 5 5 5 5 5 5 5 4 4 4 6 7 8 9 9 9 9 8 8 8 8 8 8 8 8 9
10 10 10 10 11 10 8 8 8 7 6 6 6 5 5 5 6 5 5 4 4 4 4 5 6 6 7 9 9 9 9 9 9 8 9 9 9 9
10 10 10 11 11 12 12 10 9 9 8 7 6 7 7 6 5 5 5 4 4 3 4 4 4 5 6 7 8 9 10 10 10 9 9 9 9 10
10 10 9 9 11 10 11 11 11 11 11 9 8 9 8 7 7 7 6 6 5 4 4 5 4 5 6 7 8 9 10 10 11 10 9 10 10 11
10 10 10 9 10 10 10 9 10 10 11 10 10 9 7 7 7 7 6 5 4 4 4 5 4 5 5 7 8 9 10 10 10 10 10 10 11 11
9 10 10 10 11 12 10 10 10 9 9 10 10 9 9 8 7 5 5 5 5 4 4 4 3 4 5 5 6 8 9 9 9 10 11 11 11 11
7 8 10 12 12 13 11 11 11 9 7 7 7 8 8 9 10 8 7 7 4 4 4 4 3 2 3 3 4 5 7 9 10 11 11 11 11 9
6 6 7 11 12 13 12 10 10 8 7 7 6 6 5 6 7 7 6 6 6 4 3 4 3 3 3 3 4 5 6 6 8 9 10 11 10 9
5 4 5 7 9 11 10 10 10 8 6 6 6 6 6 5 5 5 5 5 5 5 6 5 4 4 4 4 4 4 5 6 6 7 8 9 10 10
3 3 4 5 6 6 7 8 8 6 6 6 7 6 5 5 4 3 4 3 3 5 6 7 5 4 5 5 4 4 5 5 6 5 6 6 7 7
2 2 2 3 3 2 3 4 4 5 5 6 6 5 4 4 4 4 4 4 4 3 4 6 6 6 5 6 5 6 5 4 5 5 6 6 7 8
1 1 1 1 1 1 1 2 2 3 4 4 4 4 4 4 4 4 4 4 5 5 4 3 3 4 5 5 5 6 5 5 5 5 5 6 6 7
1 1 1 1 1 2 2 2 2 2 3 3 3 4 4 5 4 4 4 5 5 5 5 3 3 2 3 4 5 6 5 5 4 5 5 5 6 6
1 0 1 1 1 1 1 2 2 2 2 3 3 3 4 4 4 4 5 5 5 5 4 4 4 4 5 5 3 4 4 4 4 4 5 5 6 6
1 0 0 1 1 1 1 2 2 2 2 3 3 3 4 4 4 4 5 5 5 4 4 4 4 4 5 5 4 4 5 5 4 5 5 5 5 6
2 1 1 1 1 1 1 2 2 2 3 3 3 3 4 4 4 4 4 5 5 4 4 4 4 4 3 2 3 4 4 5 6 5 5 4 5 5
2 2 1 1 1 1 2 2 2 2 2 3 3 3 4 4 4 5 4 5 5 5 4 3 2 3 3 4 5 5 4 4 4 6 7 7 4 4
3 2 2 1 1 1 1 2 2 2 2 3 3 3 4 4 4 4 5 5 4 4 4 4 3 3 4 4 5 5 5 4 3 3 4 6 9 10
Wind_Direction
220 221 221 223 219 224 222 217 218 219 220 212 206 208 207 213 202 210 219 218 220 221 225 231 231 229 236 245 255 261 270 268 272 281 290 295 292 291
219 220 222 223 218 219 223 225 231 225 226 217 226 222 222 237 222 223 227 224 223 224 227 230 234 230 233 238 249 258 265 266 271 278 284 290 290 285
220 221 223 222 218 215 216 221 227 233 231 237 247 231 230 231 228 228 226 225 227 229 231 231 234 234 235 239 243 249 256 263 267 271 278 284 287 288
220 221 223 222 221 219 216 219 223 228 231 233 239 234 233 230 227 231 233 231 231 231 231 232 233 232 231 236 235 238 247 257 262 266 271 277 282 287
223 222 223 221 221 220 219 219 223 226 228 227 235 234 236 228 227 231 235 236 238 230 226 229 232 233 231 232 232 235 242 248 254 259 265 271 275 279
227 226 225 224 221 219 220 219 219 222 222 219 226 229 232 230 223 224 233 233 239 239 232 232 232 229 229 233 234 236 238 243 251 257 261 265 269 273
228 228 228 230 227 222 221 217 214 218 219 216 222 232 232 221 223 222 233 241 245 231 238 239 236 233 231 230 231 236 241 243 249 254 258 263 268 270
229 230 229 229 225 226 227 227 223 218 218 218 225 225 229 230 228 225 224 238 242 221 242 249 243 239 240 235 237 237 240 246 249 251 255 260 266 270
228 229 228 226 222 222 223 226 231 230 226 225 226 228 230 227 221 224 227 233 250 241 242 248 242 244 247 242 240 238 240 243 248 250 253 260 264 267
231 230 230 228 221 219 220 222 227 227 222 224 228 231 233 228 223 228 235 246 265 245 226 242 246 251 257 248 239 239 240 243 247 251 257 263 267 269
235 232 230 229 224 220 218 220 226 232 229 229 235 234 229 224 221 219 219 225 247 246 229 231 249 265 263 257 242 233 240 246 249 255 260 263 269 270
231 231 230 231 227 221 219 219 224 227 223 225 232 232 227 222 218 219 218 221 237 242 221 221 238 248 261 257 255 248 250 255 255 259 261 263 266 265
230 230 229 224 225 223 222 224 225 224 220 219 224 227 225 222 222 223 224 221 224 238 220 215 234 238 245 268 271 265 255 260 258 259 258 259 258 252
232 236 230 220 223 224 223 222 220 219 219 216 219 222 222 223 221 218 218 225 237 239 230 232 239 233 242 261 268 269 268 260 258 260 256 254 252 250
247 241 229 222 227 228 224 219 216 216 214 215 218 223 224 219 215 214 212 215 241 248 237 242 240 235 237 246 258 264 269 266 260 262 257 254 249 250
261 249 228 220 222 232 226 225 223 219 216 217 216 219 213 210 212 210 211 211 227 246 249 245 240 232 239 246 248 257 258 252 257 265 262 265 252 244
244 262 258 239 224 220 224 224 222 216 218 218 213 210 208 209 214 211 215 218 222 231 240 243 242 243 245 243 249 250 254 262 260 257 261 259 257 247
246 209 221 219 215 218 220 224 223 229 225 219 214 210 209 211 213 213 215 216 219 225 228 224 221 244 259 259 242 246 253 261 265 260 258 256 258 259
37 162 207 213 213 225 228 227 231 234 231 220 212 217 216 214 214 213 213 216 222 227 229 225 221 221 235 251 255 230 248 267 266 263 263 265 264 268
18 341 249 242 234 230 231 233 235 232 225 224 220 220 220 216 214 215 214 215 222 228 230 227 228 230 235 248 260 270 250 256 261 259 270 283 288 287
356 343 319 289 262 251 248 236 232 231 227 222 224 223 223 219 218 220 220 222 225 226 230 239 245 247 256 257 258 264 271 258 257 261 267 275 284 281
346 333 317 303 284 267 248 231 228 230 229 225 228 229 227 224 223 223 225 225 224 228 237 244 239 240 239 241 252 265 278 289 286 270 253 253 259 257
344 339 325 301 287 279 252 232 229 231 234 232 232 232 227 224 227 226 228 225 223 224 227 235 241 245 246 244 252 263 270 281 285 288 283 282 274 271
Height
1484 1486 1488 1489 1491 1493 1495 1497 1499 1499 1501 1502 1505 1506 1508 1510 1511 1513 1515 1516 1518 1519 1520 1521 1522 1523 1523 1523 1524 1524 1524 1524 1524 1523 1523 1522 1521 1521
1479 1481 1483 1485 1487 1489 1490 1492 1494 1495 1496 1497 1499 1501 1503 1505 1507 1508 1510 1511 1513 1514 1515 1516 1517 1518 1519 1519 1519 1519 1519 1519 1519 1519 1519 1518 1517 1516
1473 1475 1478 1480 1481 1484 1486 1487 1489 1490 1490 1492 1494 1496 1498 1500 1501 1503 1505 1506 1507 1509 1510 1511 1512 1513 1513 1514 1514 1514 1514 1515 1514 1514 1514 1513 1513 1512
1468 1470 1472 1474 1476 1479 1480 1482 1484 1485 1486 1486 1488 1490 1493 1495 1496 1497 1499 1501 1502 1503 1504 1505 1506 1507 1508 1509 1509 1509 1509 1510 1509 1509 1509 1508 1508 1507
1462 1464 1466 1468 1471 1473 1475 1477 1479 1480 1481 1483 1483 1485 1487 1489 1491 1492 1494 1495 1496 1497 1499 1500 1501 1502 1503 1503 1504 1504 1504 1504 1504 1504 1503 1503 1503 1502
1456 1458 1460 1462 1465 1467 1469 1471 1473 1475 1477 1478 1479 1480 1482 1484 1485 1486 1488 1490 1491 1492 1493 1494 1495 1496 1497 1498 1498 1498 1499 1499 1499 1499 1498 1498 1498 1497
1450 1452 1454 1456 1459 1461 1463 1465 1467 1470 1471 1472 1474 1475 1477 1478 1480 1481 1482 1483 1485 1486 1488 1489 1490 1490 1491 1492 1492 1493 1493 1493 1493 1493 1493 1493 1492 1492
1444 1445 1448 1450 1453 1455 1457 1460 1462 1464 1466 1467 1468 1469 1471 1473 1475 1476 1477 1478 1479 1481 1482 1483 1484 1484 1485 1485 1486 1487 1487 1488 1487 1487 1487 1487 1487 1486
1438 1440 1442 1444 1446 1449 1451 1453 1456 1457 1460 1462 1462 1464 1466 1468 1470 1471 1472 1473 1473 1475 1477 1477 1478 1478 1479 1480 1480 1481 1481 1482 1482 1482 1482 1482 1481 1481
1432 1433 1436 1438 1441 1443 1445 1447 1449 1451 1453 1455 1457 1459 1461 1463 1464 1466 1466 1468 1469 1469 1471 1471 1472 1473 1474 1474 1475 1475 1476 1476 1476 1477 1476 1476 1476 1475
1426 1427 1429 1432 1434 1437 1439 1441 1442 1444 1447 1449 1451 1453 1455 1457 1458 1460 1461 1462 1462 1463 1465 1466 1467 1468 1468 1469 1469 1470 1470 1470 1470 1471 1471 1471 1470 1469
1420 1421 1423 1425 1428 1431 1433 1435 1436 1438 1441 1443 1445 1446 1448 1450 1452 1453 1455 1456 1457 1458 1459 1461 1462 1463 1462 1463 1464 1464 1465 1465 1465 1465 1465 1465 1465 1464
1413 1415 1417 1420 1422 1424 1426 1429 1430 1433 1435 1437 1438 1440 1442 1443 1445 1447 1448 1450 1451 1452 1454 1456 1456 1457 1458 1457 1458 1458 1459 1459 1459 1459 1459 1459 1459 1459
1408 1410 1412 1414 1416 1418 1420 1422 1425 1428 1430 1431 1432 1434 1435 1437 1438 1440 1442 1444 1445 1447 1449 1450 1450 1452 1452 1452 1452 1453 1453 1454 1454 1453 1453 1453 1453 1453
1404 1406 1407 1409 1410 1412 1414 1417 1419 1422 1423 1425 1426 1427 1429 1431 1433 1434 1436 1437 1439 1441 1442 1444 1445 1446 1447 1447 1447 1447 1448 1448 1448 1448 1448 1447 1446 1446
1400 1402 1403 1404 1406 1407 1409 1411 1413 1415 1417 1419 1420 1422 1424 1426 1427 1428 1430 1431 1433 1434 1436 1438 1439 1441 1441 1442 1442 1442 1442 1442 1442 1442 1442 1441 1441 1440
1397 1398 1399 1400 1401 1403 1405 1406 1408 1410 1412 1413 1415 1416 1418 1420 1422 1423 1425 1426 1427 1429 1430 1432 1434 1435 1436 1436 1436 1436 1437 1436 1437 1437 1436 1435 1435 1434
1395 1394 1395 1396 1397 1399 1401 1402 1404 1406 1407 1409 1410 1412 1414 1415 1417 1419 1420 1421 1422 1424 1425 1427 1428 1429 1430 1430 1431 1431 1431 1431 1431 1431 1431 1430 1429 1429
1391 1391 1392 1393 1394 1396 1398 1399 1400 1402 1404 1405 1406 1408 1410 1411 1412 1414 1415 1417 1418 1419 1421 1422 1423 1424 1424 1424 1425 1426 1426 1426 1426 1426 1425 1425 1424 1423
1389 1389 1390 1391 1392 1393 1395 1396 1397 1398 1400 1401 1402 1404 1405 1407 1408 1409 1411 1412 1413 1415 1416 1417 1418 1418 1419 1420 1420 1421 1422 1421 1421 1420 1420 1420 1419 1419
1388 1388 1389 1389 1390 1391 1392 1393 1394 1395 1396 1397 1398 1400 1401 1403 1404 1405 1407 1408 1409 1410 1411 1412 1413 1415 1415 1416 1416 1415 1417 1417 1417 1416 1416 1415 1414 1413
1387 1387 1388 1388 1388 1389 1390 1390 1391 1392 1393 1394 1395 1396 1397 1399 1400 1401 1402 1404 1405 1406 1407 1408 1409 1410 1411 1411 1411 1411 1411 1412 1412 1412 1412 1412 1410 1408
1387 1387 1387 1387 1387 1387 1387 1388 1388 1389 1389 1390 1391 1392 1393 1394 1396 1397 1398 1400 1401 1402 1403 1404 1405 1406 1406 1407 1407 1407 1407 1407 1407 1407 1407 1407 1407 1406